This is the latest recevied weather packets stored in our database for station/object K3TLB-13. If no packets are shown the sender has not sent any weather packets the latest 10 day(s).
| Time | Temp. | Humidity | Pressure | Rain* | Wind** | Luminosity | Snow |
|---|---|---|---|---|---|---|---|
| 1777579158 | 16.67° C | 51% | 1009 hPa | 0 mm | - | - | - |
| 1777578861 | 16.67° C | 51% | 1008.9 hPa | 0 mm | - | - | - |
| 1777578558 | 17.22° C | 49% | 1008.7 hPa | 0 mm | - | - | - |
| 1777578258 | 17.22° C | 52% | 1008.7 hPa | 0 mm | - | - | - |
| 1777577958 | 16.67° C | 54% | 1008.5 hPa | 0 mm | - | - | - |
| 1777577658 | 16.67° C | 51% | 1008.6 hPa | 0 mm | - | - | - |
| 1777577359 | 16.67° C | 48% | 1008.4 hPa | 0 mm | - | - | - |
| 1777577058 | 16.67° C | 43% | 1008.3 hPa | 0 mm | - | - | - |
| 1777576767 | 17.22° C | 45% | 1008.3 hPa | 0 mm | - | - | - |
| 1777576458 | 17.22° C | 48% | 1008.3 hPa | 0 mm | - | - | - |
| 1777576158 | 17.22° C | 44% | 1008.4 hPa | 0 mm | - | - | - |
| 1777575860 | 17.22° C | 46% | 1008.3 hPa | 0 mm | - | - | - |
| 1777575558 | 17.22° C | 43% | 1008.2 hPa | 0 mm | - | - | - |
| 1777575258 | 16.67° C | 43% | 1008.3 hPa | 0 mm | - | - | - |
| 1777574958 | 17.22° C | 42% | 1008.3 hPa | 0 mm | - | - | - |
| 1777574659 | 16.67° C | 45% | 1008.2 hPa | 0 mm | - | - | - |
| 1777574358 | 17.22° C | 44% | 1008.2 hPa | 0 mm | - | - | - |
| 1777574059 | 17.22° C | 47% | 1008.3 hPa | 0 mm | - | - | - |
| 1777573758 | 17.22° C | 44% | 1008.3 hPa | 0 mm | - | - | - |
| 1777573458 | 16.67° C | 45% | 1008.3 hPa | 0 mm | - | - | - |
| 1777573158 | 16.67° C | 42% | 1008.2 hPa | 0 mm | - | - | - |
| 1777572858 | 16.67° C | 44% | 1008.2 hPa | 0 mm | - | - | - |
| 1777572560 | 16.11° C | 43% | 1008.3 hPa | 0 mm | - | - | - |
| 1777572260 | 16.11° C | 43% | 1008.2 hPa | 0 mm | - | - | - |
| 1777571959 | 16.11° C | 45% | 1008.3 hPa | 0 mm | - | - | - |
* Rain latest hour (hover to see other rain measurements)
** Current wind speed in m/s (hover to see current wind gust speed)